Bremerton, WA

9:44 AM PDT on October 17, 2019 (GMT -0700)
Bremerton National

Weather History for KPWT - August, 2019

Change the Weather History Date:

Friday, August 30, 2019

  Actual Average Record
Temperature  
Mean Temperature 66 °F -  
Max Temperature 75 °F 71 °F 86 °F (2003)
Min Temperature 60 °F 48 °F 44 °F (1999)
Cooling Degree Days 2    
Growing Degree Days 16 (Base 50)    
Moisture  
Dew Point 59 °F    
Average Humidity 77    
Maximum Humidity 97    
Minimum Humidity 53    
Precipitation  
Precipitation 0.00 in - - ()
Sea Level Pressure  
Sea Level Pressure 30.08 in    
Wind  
Wind Speed 5 mph ()    
Max Wind Speed 12 mph    
Max Gust Speed 18 mph    
Visibility 10.0 miles    
Events      
Averages and records for this station are not official NWS values.
T = Trace of Precipitation, MM = Missing Value Source: Averaged Metar Reports

Daily Weather History Graph

Daily Weather History Graph

Search for Another Location

Airport or City:

Astronomy

Aug. 30, 2019 Rise Set
Actual Time 6:26 AM PDT 7:55 PM PDT
Civil Twilight 5:54 AM PDT 8:27 PM PDT
Nautical Twilight 5:15 AM PDT 9:06 PM PDT
Astronomical Twilight 4:33 AM PDT 9:47 PM PDT
Moon 6:31 AM PDT (8/30) 8:35 PM PDT (8/30)
Length of Visible Light 14h 32m
Length of Day
13h 28m
New Moon, 0% of the Moon is Illuminated
Aug 30
New Moon
Sep 5
First Quarter
Sep 13
Full
Sep 21
Last Quarter
Sep 28
New

Hourly Weather History & Observations

Time (PDT) Temp. Dew Point Humidity Pressure Visibility Wind Dir Wind Speed Gust Speed Precip Events Conditions
12:56 AM 62.1 °F 60.1 °F 93% 30.06 in 10.0 mi SW 4.6 mph - N/A   Overcast
1:56 AM 61.0 °F 60.1 °F 97% 30.07 in 10.0 mi WSW 3.5 mph - N/A   Overcast
2:42 AM 60.8 °F 59.0 °F 94% 30.03 in 10.0 mi SSW 4.6 mph - N/A   Overcast
2:56 AM 61.0 °F 59.0 °F 93% 30.08 in 10.0 mi SSW 8.1 mph - N/A   Overcast
3:56 AM 61.0 °F 59.0 °F 93% 30.09 in 10.0 mi SSW 4.6 mph - N/A   Overcast
4:56 AM 61.0 °F 59.0 °F 93% 30.10 in 10.0 mi SSW 5.8 mph - N/A   Overcast
5:56 AM 61.0 °F 59.0 °F 93% 30.10 in 10.0 mi Variable 3.5 mph - N/A   Overcast
6:56 AM 61.0 °F 59.0 °F 93% 30.11 in 10.0 mi South 4.6 mph - N/A   Overcast
7:56 AM 62.1 °F 60.1 °F 93% 30.12 in 10.0 mi South 6.9 mph - N/A   Overcast
8:56 AM 64.0 °F 61.0 °F 90% 30.12 in 10.0 mi South 4.6 mph - N/A   Overcast
9:46 AM 64.4 °F 60.8 °F 88% 30.07 in 10.0 mi South 4.6 mph - N/A   Overcast
9:54 AM 64.4 °F 60.8 °F 88% 30.08 in 10.0 mi SSW 10.4 mph - N/A   Overcast
9:56 AM 64.9 °F 60.1 °F 84% 30.12 in 10.0 mi SSW 9.2 mph - N/A   Overcast
10:56 AM 68.0 °F 60.1 °F 76% 30.12 in 10.0 mi South 8.1 mph - N/A   Mostly Cloudy
11:53 AM 71.6 °F 60.8 °F 69% 30.07 in 10.0 mi South 8.1 mph - N/A   Mostly Cloudy
11:56 AM 70.0 °F 59.0 °F 68% 30.12 in 10.0 mi Variable 6.9 mph - N/A   Mostly Cloudy
12:39 PM 71.6 °F 59.0 °F 64% 30.07 in 10.0 mi SW 11.5 mph 18.4 mph N/A   Mostly Cloudy
12:56 PM 72.0 °F 59.0 °F 64% 30.11 in 10.0 mi South 8.1 mph - N/A   Overcast
1:56 PM 71.1 °F 57.9 °F 63% 30.11 in 10.0 mi South 8.1 mph - N/A   Overcast
2:56 PM 73.9 °F 57.9 °F 57% 30.09 in 10.0 mi SW 10.4 mph - N/A   Mostly Cloudy
3:56 PM 73.9 °F 57.9 °F 57% 30.08 in 10.0 mi SSW 8.1 mph - N/A   Overcast
4:56 PM 73.9 °F 55.9 °F 53% 30.07 in 10.0 mi SW 6.9 mph - N/A   Partly Cloudy
5:56 PM 73.0 °F 55.9 °F 55% 30.07 in 10.0 mi SW 10.4 mph - N/A   Clear
6:56 PM 71.1 °F 55.9 °F 59% 30.07 in 10.0 mi SSW 4.6 mph - N/A   Partly Cloudy
7:56 PM 69.1 °F 57.0 °F 65% 30.07 in 10.0 mi SSW 4.6 mph - N/A   Overcast
8:56 PM 68.0 °F 57.9 °F 70% 30.08 in 10.0 mi Calm Calm - N/A   Overcast
9:56 PM 66.9 °F 57.9 °F 73% 30.07 in 10.0 mi SSW 3.5 mph - N/A   Overcast
10:56 PM 66.0 °F 59.0 °F 78% 30.06 in 10.0 mi Calm Calm - N/A   Overcast
11:56 PM 64.9 °F 59.0 °F 81% 30.05 in 10.0 mi ENE 3.5 mph - N/A   Overcast